Location: Newark
(50.0306°N, 2.3272°E)
Time: 18:57:01
(UTC+00:00)

A-11 Canister half - Pass Details

Date: 17 December 2019
Orbit: 1525 x 1684 km, 47.3° (Epoch: 19 January)

Event Time Altitude Azimuth Distance (km) Brightness Sun altitude
Rises 06:36:25 0° 261° (W) 4,918 - -10.2°
Exits shadow 06:37:28 - 261° (W) 4,588 11.0 -10.0°
Reaches altitude 10° 06:39:33 10° 261° (W) 3,939 10.7 -9.7°
Maximum altitude 06:49:42 77° 178° (S) 1,720 9.4 -8.2°
Drops below altitude 10° 06:59:48 10° 94° (E) 3,920 12.4 -6.8°
Sets 07:02:55 0° 93° (E) 4,893 13.0 -6.4°
